Location: La Fredeussais
(48.1780°N, 1.3980°W)
Time: 18:24:01
(UTC+00:00)

ARIANE 5 R/B - Pass Details

Date: 09 May 2021
Orbit: 620 x 656 km, 98.1° (Epoch: 13 June)

Event Time Altitude Azimuth Distance (km) Brightness Sun altitude
Exits shadow 20:06:13 - 113° (ESE) 2,257 4.8 -5.9°
Reaches altitude 10° 20:07:05 10° 106° (ESE) 1,991 4.6 -6.0°
Maximum altitude 20:10:07 19° 61° (ENE) 1,488 4.3 -6.4°
Drops below altitude 10° 20:13:10 10° 16° (NNE) 1,999 5.4 -6.8°
Sets 20:15:52 0° 359° (N) 2,912 6.6 -7.2°
